Find Starlink 32001

NORAD ID: 60110 Int'l Des: 2024-117 Owner: SPXS Country: US Constellation: starlink operational
LEOCIRCULAR

Current View

Loading 3D Globe...

About Starlink 32001

Starlink 32001 (NORAD 60110) is a starlink constellation satellite (v2 mini) launched Jun 23, 2024 by SPXS of US. It operates in LEO, CIRCULAR orbit with a mass of 730.00 kg.

About Starlink 32001

Description loading...

Upcoming Passes

Passes for default location (London). Set your location on the main map for personalized predictions.

Altitude History

Loading altitude history...

Two-Line Element Set

1 60110U 24117V 26171.45230604 .00002971 00000-0 11241-3 0 9995
2 60110 53.1608 279.5345 0001240 90.8719 269.2424 15.30195176112628
Epoch: Jun 20, 2026 • Age: 17 hours

Current Status

Altitude 477.4 km
Velocity 7.63 km/s
Sub-Earth Point 36.22°N, 24.73°W
Launch Date Jun 23, 2024
Age 1.9 years
Type internet

Technical Details

Classification Payload
Mass 730.00 kg
Dry Mass 700.00 kg
Total Mass 730.00 kg
Length 0.30 m
Diameter 4.10 m
Span 29.00 m
Shape Box + pan
Manufacturer SPXS
Bus Type Starlink V2M
Phase Status In Orbit
Owner/State SPXS/US

Most Searched